User: anonymous   Login
Location: Unspecified
(0.0000°N, 0.0000°E)
Time: 04:47:21
(UTC+00:00)
Language:

Intelsat II F-4 - Orbit

View from above orbital plane
View from above orbital plane
View from above satellite
View from above satellite

Ground track
Ground track

The orbit data is extracted from the following two-line orbital elements,

1  2969U 67094A   18020.58890493 +.00000114 +00000-0 +00000-0 0  9995
2  2969 003.3784 296.1843 0012738 251.5409 335.8587 01.00248320084532
Epoch (UTC): 20 January 2018 14:08:01
Eccentricity: 0.0012738
inclination: 3.3784°
perigee height: 35739 km
apogee height: 35846 km
right ascension of ascending node: 296.1843°
argument of perigee: 251.5409°
revolutions per day: 1.00248320
mean anomaly at epoch: 335.8587°
orbit number at epoch: 8453

The dashed part of the orbit path shows where the satellite is in the earth's shadow,  

DLR